Regional Weather Roundup
Issued by NWS

Home | Current Version | Previous Version | Graphics & Text | Print | Product List | Glossary On
Versions: 1 2 3 4 5 6 7 8 9 10 11 12 13 14 15 16 17 18 19 20 21 22 23 24 25 26 27 28 29 30 31 32 33 34 35 36 37 38 39 40 41 42 43 44 45 46 47 48 49 50
000
ASUS45 KPSR 230610
RWRAZ

ARIZONA HOURLY REGIONAL WEATHER ROUNDUP
NATIONAL WEATHER SERVICE PHOENIX AZ
1100 PM MST WED NOV 22 2017

NOTE: FAIR INDICATES FEW OR NO CLOUDS BELOW 12,000 FEET WITH NO
SIGNIFICANT WEATHER AND/OR OBSTRUCTIONS TO VISIBILITY.

AZZ001>003-036-230700-
NORTHWEST ARIZONA

CITY           SKY/WX    TMP DP  RH WIND       PRES   REMARKS
BULLHEAD CITY  CLEAR     73  37  27 CALM      30.11S
KINGMAN        CLEAR     54  30  40 CALM      30.26F
6HR MIN TEMP:  52; 6HR MAX TEMP:  74;

$$

AZZ004>008-015-016-018-230700-
NORTH CENTRAL ARIZONA

CITY           SKY/WX    TMP DP  RH WIND       PRES   REMARKS
GRAND CANYON   PTCLDY    29  21  72 CALM      30.44F
6HR MIN TEMP:  29; 6HR MAX TEMP:  60;

WILLIAMS       CLEAR     39  25  56 S8        30.43S WCI  34
PRESCOTT       CLEAR     48  29  47 SW3       30.34R
6HR MIN TEMP:  48; 6HR MAX TEMP:  72;

FLAGSTAFF      PTCLDY    38  26  62 VRB3      30.44S
6HR MIN TEMP:  36; 6HR MAX TEMP:  58;

PAYSON         CLEAR     59  30  33 NE8       30.34S
PAGE           CLEAR     48  29  47 CALM      30.36F
6HR MIN TEMP:  48; 6HR MAX TEMP:  61;

$$

AZZ009>014-017-230700-
NORTHEAST ARIZONA

CITY           SKY/WX    TMP DP  RH WIND       PRES   REMARKS
WINSLOW        PTCLDY    42  27  55 W8        30.36F
6HR MIN TEMP:  38; 6HR MAX TEMP:  64;

SAINT JOHNS    CLEAR     44  21  40 S8        30.37F
6HR MIN TEMP:  43; 6HR MAX TEMP:  60;

WINDOW ROCK    CLEAR     31  22  69 CALM      30.42F
6HR MIN TEMP:  31; 6HR MAX TEMP:  62;

SHOW LOW       CLEAR     43  25  49 E6        30.42S
$$

AZZ540-542>544-546-548-230700-
GREATER PHOENIX AREA

CITY           SKY/WX    TMP DP  RH WIND       PRES   REMARKS
PHOENIX        CLEAR     71  34  25 E5        30.08S
6HR MIN TEMP:  69; 6HR MAX TEMP:  86;

BUCKEYE        CLEAR     63  23  22 N8        30.09S
LUKE AFB       CLEAR     61  31  32 N8        30.08S
6HR MIN TEMP:  61; 6HR MAX TEMP:  83;

DEER VALLEY    CLEAR     69  26  20 NE8       30.10S
6HR MIN TEMP:  69; 6HR MAX TEMP:  84;

SCOTTSDALE     CLEAR     62  35  36 NE5       30.12R
6HR MIN TEMP:  62; 6HR MAX TEMP:  85;

MESA-GATEWAY   CLEAR     64  23  20 E7        30.11S
$$

AZZ539-553-230700-
SOUTHWEST MARICOPA COUNTY AND PINAL COUNTY

CITY           SKY/WX    TMP DP  RH WIND       PRES   REMARKS
CASA GRANDE    NOT AVBL
$$

AZZ503-504-507>509-230700-
SOUTHEAST ARIZONA

CITY           SKY/WX    TMP DP  RH WIND       PRES   REMARKS
TUCSON         CLEAR     67  20  16 SE10      30.18R
6HR MIN TEMP:  62; 6HR MAX TEMP:  83;

DAVIS-MONTHAN  CLEAR     65  20  18 SE13      30.16R
6HR MIN TEMP:  61; 6HR MAX TEMP:  82;

NOGALES        CLEAR     55  18  23 NE5       30.22S
6HR MIN TEMP:  54; 6HR MAX TEMP:  78;

SIERRA VISTA   CLEAR     58  17  20 CALM      30.29S
6HR MIN TEMP:  55; 6HR MAX TEMP:  69;

DOUGLAS        CLEAR     50  17  27 N12       30.26F
6HR MIN TEMP:  49; 6HR MAX TEMP:  72;

SAFFORD        CLEAR     51  17  26 CALM      30.23R
6HR MIN TEMP:  50; 6HR MAX TEMP:  73;

$$

AZZ532-230700-
SOUTHWEST ARIZONA

CITY           SKY/WX    TMP DP  RH WIND       PRES   REMARKS
YUMA           CLEAR     74  32  21 N7        30.04S
6HR MIN TEMP:  72; 6HR MAX TEMP:  87;

$$

CAZ041-043-047-048-061-525>527-560>570-230700-
SOUTHERN CALIFORNIA

CITY           SKY/WX    TMP DP  RH WIND       PRES   REMARKS
DOWNTOWN L.A.  CLEAR     72  43  35 CALM      30.03R
6HR MIN TEMP:  70; 6HR MAX TEMP:  86;

L.A. AIRPORT   CLEAR     73  51  46 E3        30.03R
6HR MIN TEMP:  71; 6HR MAX TEMP:  79;

SAN DIEGO      CLEAR     71  43  36 CALM      30.03S
6HR MIN TEMP:  71; 6HR MAX TEMP:  83;

BURBANK        CLEAR     73  43  33 N3        30.06R
6HR MIN TEMP:  73; 6HR MAX TEMP:  91;

ONTARIO        CLEAR     70  41  34 N5        30.07S
6HR MIN TEMP:  68; 6HR MAX TEMP:  92;

RIVERSIDE      CLEAR     72  40  31 NE3       30.07S
6HR MIN TEMP:  71; 6HR MAX TEMP:  91;

PALM SPRINGS   CLEAR     72  43  35 NW3       30.09S
6HR MIN TEMP:  70; 6HR MAX TEMP:  89;

EL CENTRO NAS  CLEAR     67  32  27 SW6       30.06S
6HR MIN TEMP:  64; 6HR MAX TEMP:  89;

IMPERIAL       CLEAR     65  38  36 SW5       30.04R
6HR MIN TEMP:  65; 6HR MAX TEMP:  87;

BLYTHE         CLEAR     65  29  25 NW7       30.08R
6HR MIN TEMP:  65; 6HR MAX TEMP:  88;

NEEDLES        CLEAR     70  36  28 W7        30.12S
6HR MIN TEMP:  70; 6HR MAX TEMP:  85;

$$

NVZ020-UTZ003-230700-
SOUTHERN NEVADA-UTAH

CITY           SKY/WX    TMP DP  RH WIND       PRES   REMARKS
LAS VEGAS      PTCLDY    64  38  38 CALM      30.21R
6HR MIN TEMP:  63; 6HR MAX TEMP:  79;

SALT LAKE CITY MOCLDY    49  42  77 SE3       30.36S
6HR MIN TEMP:  48; 6HR MAX TEMP:  58;

$$

NMZ009-TXZ055-230700-
NEW MEXICO-WEST TEXAS

CITY           SKY/WX    TMP DP  RH WIND       PRES   REMARKS
ALBUQUERQUE    CLOUDY    46  27  47 CALM      30.34F
6HR MIN TEMP:  42; 6HR MAX TEMP:  60;

EL PASO        CLEAR     50  25  37 NE5       30.27S
6HR MIN TEMP:  48; 6HR MAX TEMP:  65;

$$


........................KEY........................
SKY/WX - SKY CONDITION/WEATHER
TMP    - TEMPERATURE IN FAHRENHEIT
DP     - DEW POINT IN FAHRENHEIT
RH     - RELATIVE HUMIDITY IN PERCENT
WIND   - DIRECTION AND SPEED IN MILES PER HOUR (MPH)
VRB    - VARIABLE WIND DIRECTION
PRES   - MEAN SEA LEVEL PRESSURE IN INCHES OF MERCURY
         F - FALLING PRESSURE   R - RISING PRESSURE
         S - STEADY PRESSURE
VSB    - VISIBILITY IN MILES
HX     - HEAT INDEX IN FAHRENHEIT
WCI    - WIND CHILL INDEX IN FAHRENHEIT
TC     - TEMPERATURE IN CELSIUS WHICH IS ALSO KNOWN AS
         TEMPERATURE IN CENTIGRADE
AFB    - AIR FORCE BASE
         LUKE AFB IS LUKE AIR FORCE BASE
         DAVIS-MONTHAN IS DAVIS-MONTHAN AIR FORCE BASE
NAS    - NAVAL AIR STATION
         EL CENTRO NAS IS EL CENTRO NAVAL AIR STATION
N/A    - NOT AVAILABLE




USA.gov is the U.S. government's official web portal to all federal, state and local government web resources and services.